Overview Statistics Trail Chart Weather Telemetry Raw packets
 

This is the latest recevied weather packets stored in our database for station/object KW4UJ. If no packets are shown the sender has not sent any weather packets the latest 10 day(s).

<< 94 95 96 97 98 99 100 >>
Time Temp. Humidity Pressure Rain* Wind** Luminosity Snow
1787930051 26.67° C 73% 1017.2 hPa 0 mm - 140 W/m² -
1787929749 26.67° C 73% 1017.1 hPa 0 mm - 128 W/m² -
1787929444 26.67° C 74% 1017.3 hPa 0 mm - 113 W/m² -
1787929142 26.67° C 75% 1017.2 hPa 0 mm - 100 W/m² -
1787928837 26.67° C 74% 1017.1 hPa 0 mm - 91 W/m² -
1787928537 26.11° C 76% 1017.2 hPa 0 mm - 88 W/m² -
1787928236 26.11° C 76% 1017.2 hPa 0 mm - 90 W/m² -
1787927934 25.56° C 77% 1017.2 hPa 0 mm - 92 W/m² -
1787927629 25.56° C 77% 1016.9 hPa 0 mm - 87 W/m² -
1787927324 25.56° C 78% 1017 hPa 0 mm - 89 W/m² -
1787927021 25° C 79% 1017 hPa 0 mm - 94 W/m² -
1787926720 25° C 79% 1016.8 hPa 0 mm - 101 W/m² -
1787926419 25° C 80% 1017 hPa 0 mm - 104 W/m² -
1787926114 25° C 81% 1016.9 hPa 0 mm - 145 W/m² -
1787925813 24.44° C 81% 1016.9 hPa 0 mm - 131 W/m² -
1787925512 24.44° C 81% 1017 hPa 0 mm - 137 W/m² -
1787925207 24.44° C 82% 1016.7 hPa 0 mm - 155 W/m² -
1787924906 23.89° C 82% 1016.9 hPa 0 mm - 169 W/m² -
1787924601 23.89° C 83% 1016.6 hPa 0 mm - 135 W/m² -
1787924296 23.89° C 83% 1016.6 hPa 0 mm - 103 W/m² -
1787923992 23.33° C 84% 1016.4 hPa 0 mm - 112 W/m² -
1787923691 22.78° C 85% 1016.4 hPa 0 mm - 222 W/m² -
1787923387 22.78° C 86% 1016.3 hPa 0 mm - 233 W/m² -
1787923082 22.78° C 85% 1016.5 hPa 0 mm - 51 W/m² -
1787922776 23.33° C 84% 1016.2 hPa 0 mm - 45 W/m² -

* Rain latest hour (hover to see other rain measurements)
** Current wind speed in m/s (hover to see current wind gust speed)